Location: Dead Woman Crossing
(43.5369°N, 106.3228°W)
Time: 02:22:30
(UTC+00:00)

UWE-3 - Pass Details

Date: 29 June 2022
Orbit: 583 x 677 km, 97.7° (Epoch: 16 August)

Event Time Altitude Azimuth Distance (km) Brightness Sun altitude
Rises 09:38:24 0° 26° (NNE) 2,883 ? -14.9°
Reaches altitude 10° 09:40:57 10° 41° (NE) 1,990 ? -14.7°
Maximum altitude 09:44:25 23° 94° (E) 1,342 ? -14.3°
Drops below altitude 10° 09:47:55 10° 147° (SSE) 2,024 ? -13.9°
Enters shadow 09:49:56 - 159° (SSE) 2,724 ? -13.7°
